Regional Weather Roundup
Issued by NWS

Home | Current Version | Previous Version | Graphics & Text | Print | Product List | Glossary On
Versions: 1 2 3 4 5 6 7 8 9 10 11 12 13 14 15 16 17 18 19 20 21 22 23 24 25 26 27 28 29 30 31 32 33 34 35 36 37 38 39 40 41 42 43 44 45 46 47 48 49 50
515
ASUS43 KDTX 260101
RWRMI
MICHIGAN HOURLY REGIONAL WEATHER ROUNDUP
NATIONAL WEATHER SERVICE DETROIT/PONTIAC MI
900 PM EDT SUN SEP 25 2016

NOTE: "FAIR" INDICATES FEW OR NO CLOUDS BELOW 12,000 FEET WITH NO
SIGNIFICANT WEATHER AND/OR OBSTRUCTION TO VISIBILITY.

MIZ047>049-052>055-059>063-066>070-074>076-081>083-260200-
SOUTHEAST LOWER MICHIGAN

CITY           SKY/WX    TMP DP  RH WIND       PRES   REMARKS
ADRIAN         CLEAR     62  53  72 SE5       30.05S
ALMA           CLEAR     66  55  69 S8        30.00R
ANN ARBOR      CLEAR     61  50  67 E5        30.05S
BAD AXE        PTCLDY    61  52  73 SE6       30.06R
CARO           CLEAR     61  49  65 SE8       30.03S
DETROIT CITY   CLEAR     64  52  64 SE9       30.06F
DETROIT        PTCLDY    64  49  57 E6        30.06F
FLINT          CLEAR     60  49  66 SE8       30.04R
GROSSE ILE     CLEAR     63  51  66 E3        30.04F
HILLSDALE      MOCLDY    63  50  63 E10       30.03S
HOWELL         CLEAR     61  47  60 SE9       30.04R

CITY           SKY/WX    TMP DP  RH WIND       PRES   REMARKS
JACKSON        CLEAR     64  50  60 SE9       30.03R
LAMBERTVILLE   CLEAR     65  55  70 SE5       30.04S
LANSING        CLEAR     65  46  50 SE13      30.02R
LAPEER         FAIR      61  49  66 SE9       30.06R
MASON          CLEAR     62  48  61 SE6       30.03R
MONROE         CLEAR     65  56  71 SE6       30.04S
MT. CLEMENS    PTCLDY    62  51  66 SE7       30.05F
PONTIAC        CLOUDY    64  46  52 SE10      30.04F
PORT HOPE        N/A     63  52  67 SE6       30.04S
PORT HURON     CLEAR     59  52  77 SE6       30.07F
TRI CITIES     CLOUDY    65  52  62 SE9       30.02S
MIDLAND        FAIR      66  52  60 SE9       30.00R
TROY           CLEAR     65  46  49 SE3       30.08S
SAGINAW HB     CLEAR     63  50  63 SE9       30.02S
$$
MIZ043>046-050>051-056>058-064>065-071>073-077>080-260200-
SOUTHWEST LOWER MICHIGAN

CITY           SKY/WX    TMP DP  RH WIND       PRES   REMARKS
BATTLE CREEK   PTCLDY    70  55  59 SE13      29.98F
BENTON HARBOR  CLOUDY    75  64  68 SE8       29.92S
BIG RAPIDS     PTCLDY    68  53  58 SE8       29.95R
COLDWATER      PTCLDY    68  50  52 SE7       30.00S
FREMONT        RAIN      68  55  62 SE9       29.92S
HOLLAND        CLOUDY    72  61  68 SE12      29.92F
GRAND RAPIDS   CLOUDY    68  53  58 SE13      29.96F
IONIA          FAIR      64  49  57 SE12G17   29.97F
KALAMAZOO      PTCLDY    72  57  59 SE7       29.97S
LUDINGTON      CLOUDY    69  59  70 SE9G18    29.89R
MARSHALL       PTCLDY    67  50  55 SE7       30.00S
MUSKEGON       TSTM      72  59  63 SE13      29.90F
SOUTH HAVEN    MOCLDY    76  66  71 SE7       29.92F
$$
MIZ016>042-260200-
NORTHERN LOWER MICHIGAN

CITY           SKY/WX    TMP DP  RH WIND       PRES   REMARKS
ALPENA         MOCLDY    63  53  70 SE10      30.01F
BEAVER ISLAND  RAIN      63  59  88 SE13      29.89S
BELLAIRE       PTCLDY    69  53  56 S7G16     29.92R
CADILLAC       CLOUDY    66  53  63 SE13      29.95R
CHARLEVOIX     LGT RAIN  66  56  70 SE12G17   29.93R
FRANKFORT      CLOUDY    67  59  73 S9        29.87S
GAYLORD        PTCLDY    64  52  64 SE15      29.96F
GRAYLING       PTCLDY    64  55  72 SE7       29.97F
HARBOR SPRINGS RAIN      67  54  63 CALM      29.93S
HOUGHTON LAKE  CLOUDY    64  52  64 SE10      29.98F
MANISTEE       MOCLDY    69  57  65 SE8       29.88S
OSCODA         PTCLDY    65  53  66 SE10G16   30.01F
PELLSTON       CLOUDY    66  53  63 SE12      29.93F
ROGERS CITY    PTCLDY    64  55  72 SE12G20   29.99F
TRAVERSE CITY  LGT RAIN  69  55  60 SE10G22   29.88S
$$
MIZ007>008-015-260200-
EASTERN UPPER MICHIGAN

CITY           SKY/WX    TMP DP  RH WIND       PRES   REMARKS
KINROSS        CLOUDY    63  56  78 SE21G26   29.95F
MACKINAC ISLAN CLOUDY    64  54  68 SE12G20   29.93S
NEWBERRY       CLOUDY    58  56  94 SE12G17   29.89F
S. S. MARIE    CLOUDY    63  55  75 SE12G21   29.95F
MUNISING         N/A     62  61  96 S12       29.82F
$$
MIZ004>006-011>014-085-260200-
CENTRAL UPPER MICHIGAN

CITY           SKY/WX    TMP DP  RH WIND       PRES   REMARKS
MANISTIQUE     HVY RAIN  64  61  91 SE9G17    29.86S
ESCANABA       CLOUDY    66  65  96 S7        29.83F
MENOMINEE        N/A    N/A N/A N/A MISG        N/A
SAWYER-GWINN   RAIN      63  61  94 SW10G16   29.83F
$$
MIZ001>003-009>011-084-260200-
WESTERN UPPER MICHIGAN

CITY           SKY/WX    TMP DP  RH WIND       PRES   REMARKS
IRON MOUNTAIN  CLOUDY    65  62  90 S5        29.81S
HOUGHTON       CLOUDY    64  60  87 W18G30    29.77S
COPPER HARBOR    N/A     64  62  93 SW9G18    29.75S
IRONWOOD       CLOUDY    60  51  72 SW8       29.82S
$$

ABBREVIATIONS USED IN REMARKS
   TC - TEMPERATURE IN CELSIUS
  WCI - WIND CHILL INDEX
   HX - HEAT INDEX
  VSB - VISIBILITY





USA.gov is the U.S. government's official web portal to all federal, state and local government web resources and services.